Weather History for Springfield, OH

Change the Weather History Date:

Monday, November 26, 2012

  Actual Average (KDAY) Record (KDAY)
Temperature  
Mean Temperature 35 °F 38 °F  
Max Temperature 46 °F 46 °F 70 °F (1896)
Min Temperature 24 °F 31 °F 8 °F (1930)
Degree Days  
Heating Degree Days 30 27  
Month to date heating degree days 552  
Since 1 July heating degree days 999  
Cooling Degree Days 0 0  
Month to date cooling degree days 0  
Year to date cooling degree days 891  
Moisture  
Dew Point 25 °F    
Average Humidity 63    
Maximum Humidity 88    
Minimum Humidity 39    
Precipitation  
Precipitation 0.00 in 0.11 in 1.48 in (1986)
Month to date precipitation 2.94  
Year to date precipitation 37.48  
Snow  
Snow 0.00 in 0.00 in 2.30 in (1950)
Month to date snowfall 0.4  
Since 1 July snowfall 0.8  
Since 1 September snowfall 0.8  
Snow Depth -    
Sea Level Pressure  
Sea Level Pressure 30.18 in    
Wind  
Wind Speed 5 mph (North)    
Max Wind Speed 14 mph    
Max Gust Speed -    
Visibility 7 miles    
Events      
T = Trace of Precipitation, MM = Missing Value Source: NWS Daily Summary

Daily Weather History Graph

Daily Weather History Graph

Search for Another Location

Airport:

Trip Planner

Search our weather history database for the weather conditions in past years. The results will help you decide how hot, cold, wet, or windy it might be!

Date:

Astronomy

Nov. 26, 2012 Rise Set
Actual Time 7:32 AM EST 5:12 PM EST
Civil Twilight 7:03 AM EST 5:42 PM EST
Nautical Twilight 6:29 AM EST 6:15 PM EST
Astronomical Twilight 5:57 AM EST 6:47 PM EST
Moon 4:04 PM EST (11/26) 5:42 AM EST (11/26)
Length of Visible Light 10h 39m
Length of Day
9h 39m
Waxing Gibbous, 97% of the Moon is Illuminated
Nov 26
Waxing Gibbous
Nov 28
Full
Dec 6
Last Quarter
Dec 13
New
Dec 20
First Quarter

Hourly Weather History & Observations

Time (EST) Temp. Windchill Dew Point Humidity Pressure Visibility Wind Dir Wind Speed Gust Speed Precip Events Conditions
12:56 AM 36.0 °F 31.1 °F 27.1 °F 70% 30.06 in 8.0 mi West 5.8 mph - N/A   Clear
1:56 AM 36.9 °F 31.4 °F 27.1 °F 68% 30.06 in 8.0 mi WNW 6.9 mph - N/A   Clear
2:56 AM 36.0 °F 32.1 °F 27.1 °F 70% 30.08 in 8.0 mi NW 4.6 mph - N/A   Overcast
3:56 AM 34.9 °F - 27.1 °F 73% 30.09 in 8.0 mi Calm Calm - N/A   Overcast
4:56 AM 32.9 °F 29.8 °F 26.1 °F 76% 30.12 in 7.0 mi North 3.5 mph - N/A   Scattered Clouds
5:56 AM 30.0 °F - 24.1 °F 79% 30.14 in 7.0 mi Calm Calm - N/A   Clear
6:56 AM 24.1 °F 19.7 °F 21.0 °F 88% 30.17 in 6.0 mi NE 3.5 mph - N/A   Clear
7:56 AM 25.2 °F 20.9 °F 22.1 °F 88% 30.20 in 4.0 mi ESE 3.5 mph - N/A   Clear
8:56 AM 31.1 °F - 27.1 °F 85% 30.22 in 4.0 mi Calm Calm - N/A   Clear
9:56 AM 36.9 °F 33.1 °F 26.1 °F 65% 30.22 in 6.0 mi SE 4.6 mph - N/A   Haze
10:56 AM 41.9 °F 39.0 °F 26.1 °F 53% 30.22 in 7.0 mi East 4.6 mph - N/A   Clear
11:56 AM 43.0 °F - 25.2 °F 49% 30.20 in 6.0 mi Calm Calm - N/A   Haze
12:56 PM 45.0 °F - 24.1 °F 44% 30.19 in 6.0 mi Calm Calm - N/A   Haze
1:56 PM 46.9 °F - 24.1 °F 41% 30.17 in 7.0 mi ENE 4.6 mph - N/A   Clear
2:56 PM 45.9 °F 43.6 °F 22.1 °F 39% 30.17 in 6.0 mi WNW 4.6 mph - N/A   Haze
3:56 PM 43.9 °F 41.3 °F 23.0 °F 44% 30.17 in 7.0 mi WNW 4.6 mph - N/A   Mostly Cloudy
4:56 PM 41.9 °F 40.0 °F 25.2 °F 52% 30.19 in 6.0 mi WNW 3.5 mph - N/A   Haze
5:56 PM 39.9 °F 36.7 °F 24.1 °F 53% 30.19 in 8.0 mi NW 4.6 mph - N/A   Partly Cloudy
6:56 PM 41.0 °F 38.0 °F 23.0 °F 49% 30.22 in 8.0 mi NNW 4.6 mph - N/A   Overcast
7:56 PM 39.9 °F 32.5 °F 25.2 °F 56% 30.22 in 7.0 mi North 12.7 mph - N/A   Overcast
8:56 PM 37.9 °F 31.5 °F 27.1 °F 65% 30.22 in 7.0 mi NNE 9.2 mph - N/A   Overcast
9:56 PM 36.9 °F 29.6 °F 27.1 °F 68% 30.25 in 7.0 mi NNE 10.4 mph - N/A   Mostly Cloudy
10:56 PM 34.9 °F 25.7 °F 26.1 °F 70% 30.25 in 7.0 mi North 13.8 mph - N/A   Scattered Clouds
11:56 PM 34.0 °F 26.6 °F 26.1 °F 73% 30.27 in 7.0 mi North 9.2 mph - N/A   Overcast